Home > Weather > Lyon > Past weeks

Flag for France Weather for the Past 2 Weeks in Lyon, Rhône-Alpes, France

Now
43 °F

Clear.


Feels Like: 43 °F
Forecast: 42 / 49 °F
Wind: No wind

Location: Lyon / Bron

Current Time: Apr 30, 2016 at 6:08:37 AM

Latest Report: Apr 30, 2016 at 5:00 AM


Visibility: 10 mi

Pressure: 29.98 "Hg

Humidity: 81%

Dew Point: 37 °F

Location of LyonLocation

Historic Weather in Lyon — Graph

°F

Lyon Temperature Yesterday

Maximum temperature yesterday: 63 °F (at 4:30 PM)
Minimum temperature yesterday: 36 °F (at 6:00 AM)
Average temperature yesterday: 51 °F

High & Low Weather Summary for the Past Weeks

 TemperatureHumidityPressure
High72 °F (Apr 16, 3:30 PM)100% (Apr 17, 3:30 PM)30.27 "Hg (Apr 17, 3:30 PM)
Low36 °F (Apr 29, 6:00 AM)31% (Apr 28, 2:30 PM)29.62 "Hg (Apr 16, 6:00 PM)
Average53 °F66%29.98 "Hg
* Reported Apr 15 4:00 AM — Apr 30 4:30 AM, Lyon, Weather by CustomWeather, © 2016

Note: Actual official high and low records may vary slightly from our data, if they occured in-between our weather recording intervals... More about our weather records

Advertising

Lyon Weather History for the Previous 24 Hours

Scroll right to see more
 ConditionsComfort  
Time TempWeatherWind HumidityBarometerVisibility
4:30 AM
Sat, Apr 30
43 °FClear.2 mph81%30.01 "Hg10 mi
4:00 AM43 °FClear.2 mph81%29.98 "Hg10 mi
3:30 AM43 °FClear.3 mph81%29.98 "Hg10 mi
3:00 AM43 °FClear.2 mph81%30.01 "Hg10 mi
2:30 AM43 °FClear.2 mph81%30.01 "Hg10 mi
1:30 AM45 °FClear.No wind81%30.01 "Hg10 mi
1:00 AM46 °FClear.No wind71%30.01 "Hg10 mi
12:30 AM46 °FClear.1 mph76%30.01 "Hg10 mi
12:00 AM46 °FClear.No wind71%30.01 "Hg10 mi
11:30 PM
Fri, Apr 29
48 °FClear.2 mph66%30.01 "Hg10 mi
11:00 PM50 °FClear.No wind62%30.01 "Hg10 mi
10:30 PM52 °FClear.2 mph58%30.01 "Hg10 mi
10:00 PM52 °FClear.2 mph54%30.01 "Hg10 mi
9:30 PM54 °FSunny.3 mph51%30.01 "Hg10 mi
9:00 PM55 °FSunny.3 mph44%30.01 "Hg10 mi
8:30 PM59 °FSunny.6 mph42%30.01 "Hg10 mi
8:00 PM61 °FSunny.7 mph39%30.01 "Hg10 mi
7:30 PM61 °FPassing clouds.3 mph39%30.01 "HgN/A
7:00 PM61 °FSunny.3 mph36%30.01 "Hg10 mi
6:30 PM63 °FPassing clouds.5 mph32%30.01 "HgN/A
6:00 PM63 °FSunny.2 mph34%30.01 "Hg10 mi
5:30 PM63 °FPassing clouds.5 mph37%30.01 "HgN/A
5:00 PM63 °FSunny.3 mph34%30.01 "Hg10 mi
4:30 PM63 °FSunny.3 mph34%30.04 "Hg10 mi
4:00 PM61 °FPassing clouds.6 mph34%30.04 "HgN/A
3:30 PM61 °FSunny.2 mph36%30.04 "Hg10 mi
3:00 PM59 °FSunny.3 mph39%30.04 "Hg10 mi
2:30 PM59 °FPassing clouds.5 mph42%30.07 "HgN/A
2:00 PM57 °FSunny.2 mph39%30.07 "Hg10 mi
1:30 PM57 °FSunny.2 mph41%30.07 "Hg10 mi
1:00 PM57 °FSunny.3 mph41%30.07 "Hg10 mi
12:30 PM55 °FPassing clouds.6 mph41%30.09 "HgN/A
12:00 PM55 °FSunny.2 mph44%30.09 "Hg10 mi
11:30 AM55 °FSunny.3 mph41%30.09 "Hg10 mi
11:00 AM54 °FSunny.2 mph47%30.09 "Hg10 mi
10:00 AM52 °FSunny.1 mph54%30.09 "Hg10 mi
9:30 AM48 °FSunny.1 mph66%30.09 "Hg10 mi
9:00 AM46 °FSunny.2 mph66%30.09 "Hg10 mi
8:30 AM45 °FSunny.No wind71%30.09 "Hg10 mi
8:00 AM41 °FSunny.No wind81%30.09 "Hg10 mi
6:30 AM36 °FClear.No wind87%30.07 "Hg10 mi
6:00 AM36 °FClear.2 mph87%30.07 "Hg10 mi
Weather by CustomWeather, © 2016

See weather overviewHow to use our weather pages